Weather in Tul

Uzbekistan     40°06′47″N   71°04′47″E
temp.,
°C
wind,
m/s
gust,
m/s
humid.,
%
clouds,
%
prec.,
mm/h
press.,
hPa
HPBL,
m
20 april, tue
tue2023:00+14s114189 0.0 101311
02:00+12s2235100 0.0 101217
05:00+12ssw2234100 0.0 101211
08:00+14wnw1334100 0.0 1014895
11:00+15nnw2238100 0.0 10141467
14:00+16nw4437100 0.2 10121949
17:00+16se1239100 0.5 10101035
20:00+15nnw3442100 0.1 1011222
21 april, wed
wed2123:00+11ssw1270100 1.0 1013101
02:00+11nw4564100 0.9 1012723
05:00+10nnw1172100 1.1 1012121
08:00+9nw3481100 1.6 1014710
11:00+7w3592100 6.5 1015552
14:00+6s2386100 3.9 1017476
17:00+8sw167495 5.4 1018901
20:00+7sse438287 0.3 1019132
22 april, thu
thu2223:00+7sse337417 0.4 101963
02:00+6s22728 0.1 101917
05:00+5wnw117733 0.1 102012
08:00+8n216811 0.0 1022474
11:00+10n325775 0.0 10221115
14:00+13nnw35439 0.1 10221650
17:00+14nnw34320 0.4 10221648
20:00+11sse11430 0.0 102316
23 april, fri
fri2323:00+7s44440 0.0 102582
02:00+6s44330 0.0 102562
05:00+5s44280 0.0 102643
08:00+10sse22190 0.0 1024258
11:00+14n321733 0.0 10231159
14:00+16n22170 0.0 10221519
17:00+16nw11180 0.0 10211634
20:00+13sse2231100 0.0 102235
24 april, sat
sat2423:00+10s43320 0.0 102357
02:00+8s43295 0.0 102240
05:00+8s43275 0.0 102135
08:00+13se111974 0.0 1021263
11:00+17n2218100 0.0 10191053
14:00+19n32195 0.0 10181299
17:00+20n211990 0.0 10171150
20:00+15e1133100 0.0 101814